Cando, ND

11:49 AM CDT on April 26, 2017 (GMT -0500)
Cando

Weather History for K9D7 - April, 2014

Change the Weather History Date:

Tuesday, April 29, 2014

  Actual Average (KDVL) Record (KDVL)
Temperature  
Mean Temperature 41 °F -  
Max Temperature 50 °F 58 °F 89 °F (1952)
Min Temperature 32 °F 36 °F 14 °F (1958)
Degree Days  
Heating Degree Days 24    
Moisture  
Dew Point 30 °F    
Average Humidity 66    
Maximum Humidity 100    
Minimum Humidity 43    
Precipitation  
Precipitation 0.00 in - - ()
Sea Level Pressure  
Sea Level Pressure 30.09 in    
Wind  
Wind Speed 17 mph (NNE)    
Max Wind Speed 28 mph    
Max Gust Speed 36 mph    
Visibility 10 miles    
Events      
Averages and records for this station are not official NWS values.
T = Trace of Precipitation, MM = Missing Value Source: NWS Daily Summary

Daily Weather History Graph

Daily Weather History Graph

Search for Another Location

Airport or City:

Trip Planner

Search our weather history database for the weather conditions in past years. The results will help you decide how hot, cold, wet, or windy it might be!

Date:

Astronomy

Apr. 29, 2014 Rise Set
Actual Time 6:20 AM CDT 8:48 PM CDT
Civil Twilight 5:46 AM CDT 9:23 PM CDT
Nautical Twilight 5:02 AM CDT 10:07 PM CDT
Astronomical Twilight 4:11 AM CDT 10:58 PM CDT
Moon 6:40 AM CDT (4/29) 9:31 PM CDT (4/29)
Length of Visible Light 15h 37m
Length of Day
14h 27m
New Moon, 0% of the Moon is Illuminated
Apr 29
New Moon
May 6
First Quarter
May 14
Full
May 21
Last Quarter
May 28
New

Hourly Weather History & Observations

Time (CDT) Temp. Windchill Dew Point Humidity Pressure Visibility Wind Dir Wind Speed Gust Speed Precip Events Conditions
12:15 AM 35.6 °F 25.2 °F 33.8 °F 93% 29.99 in 10.0 mi ENE 18.4 mph 25.3 mph N/A   Overcast
12:35 AM 35.6 °F 26.2 °F 33.8 °F 93% 30.00 in 10.0 mi ENE 15.0 mph 23.0 mph N/A   Overcast
12:55 AM 35.6 °F 25.9 °F 33.8 °F 93% 30.00 in 10.0 mi East 16.1 mph - N/A   Overcast
1:15 AM 35.6 °F 25.9 °F 32.0 °F 87% 30.01 in 10.0 mi East 16.1 mph 19.6 mph N/A   Overcast
1:35 AM 35.6 °F 24.5 °F 32.0 °F 87% 30.02 in 10.0 mi East 20.7 mph 28.8 mph N/A   Overcast
1:55 AM 35.6 °F 25.2 °F 32.0 °F 87% 30.02 in 10.0 mi East 18.4 mph 26.5 mph N/A   Overcast
2:15 AM 35.6 °F 24.8 °F 32.0 °F 87% 30.02 in 10.0 mi East 19.6 mph 28.8 mph N/A   Overcast
2:35 AM 35.6 °F 25.2 °F 32.0 °F 87% 30.03 in 10.0 mi East 18.4 mph 24.2 mph N/A   Overcast
2:55 AM 35.6 °F 25.2 °F 32.0 °F 87% 30.04 in 10.0 mi East 18.4 mph 24.2 mph N/A   Overcast
3:15 AM 35.6 °F 27.1 °F 32.0 °F 87% 30.04 in 10.0 mi ESE 12.7 mph - N/A   Overcast
3:35 AM 35.6 °F 28.0 °F 32.0 °F 87% 30.04 in 10.0 mi East 10.4 mph - N/A   Overcast
4:15 AM 35.6 °F 29.2 °F 32.0 °F 87% 30.05 in 10.0 mi NE 8.1 mph - N/A   Overcast
4:35 AM 35.6 °F 29.2 °F 32.0 °F 87% 30.05 in 10.0 mi NE 8.1 mph - N/A   Overcast
4:55 AM 35.6 °F 29.9 °F 32.0 °F 87% 30.05 in 10.0 mi NE 6.9 mph - N/A   Overcast
5:15 AM 35.6 °F 28.0 °F 32.0 °F 87% 30.05 in 10.0 mi NNE 10.4 mph - N/A   Overcast
5:35 AM 33.8 °F 25.3 °F 32.0 °F 93% 30.06 in 10.0 mi NNE 11.5 mph - N/A   Mostly Cloudy
5:55 AM 32.0 °F 22.5 °F 32.0 °F 100% 30.06 in 10.0 mi NNE 12.7 mph - N/A   Clear
6:15 AM 33.8 °F 25.8 °F 32.0 °F 93% 30.07 in 10.0 mi NNE 10.4 mph - N/A   Clear
6:35 AM 32.0 °F 23.0 °F 32.0 °F 100% 30.08 in 10.0 mi NNE 11.5 mph - N/A   Mostly Cloudy
7:15 AM 33.8 °F 24.3 °F 28.4 °F 81% 30.09 in 10.0 mi NE 13.8 mph 18.4 mph N/A   Mostly Cloudy
7:55 AM 35.6 °F 26.6 °F 28.4 °F 75% 30.10 in 10.0 mi NNE 13.8 mph 18.4 mph N/A   Clear
8:15 AM 35.6 °F 26.6 °F 28.4 °F 75% 30.11 in 10.0 mi NE 13.8 mph 20.7 mph N/A   Clear
8:35 AM 37.4 °F 29.3 °F 28.4 °F 70% 30.12 in 10.0 mi NE 12.7 mph 20.7 mph N/A   Clear
8:55 AM 37.4 °F 28.5 °F 26.6 °F 65% 30.12 in 10.0 mi NE 15.0 mph 19.6 mph N/A   Clear
9:15 AM 37.4 °F 28.5 °F 28.4 °F 70% 30.12 in 10.0 mi NE 15.0 mph 19.6 mph N/A   Clear
9:35 AM 39.2 °F 30.5 °F 28.4 °F 65% 30.12 in 10.0 mi NE 16.1 mph 21.9 mph N/A   Clear
9:55 AM 39.2 °F 30.8 °F 28.4 °F 65% 30.13 in 10.0 mi NNE 15.0 mph 19.6 mph N/A   Clear
10:15 AM 39.2 °F 30.8 °F 28.4 °F 65% 30.13 in 10.0 mi NE 15.0 mph 21.9 mph N/A   Clear
10:35 AM 41.0 °F 33.5 °F 28.4 °F 61% 30.12 in 10.0 mi NE 13.8 mph 20.7 mph N/A   Clear
10:55 AM 41.0 °F 33.1 °F 28.4 °F 61% 30.13 in 10.0 mi NE 15.0 mph 19.6 mph N/A   Clear
11:15 AM 44.6 °F 37.2 °F 32.0 °F 61% 30.13 in 10.0 mi NNE 17.3 mph 21.9 mph N/A   Clear
11:35 AM 44.6 °F 38.1 °F 32.0 °F 61% 30.13 in 10.0 mi North 13.8 mph 20.7 mph N/A   Clear
11:55 AM 46.4 °F 39.8 °F 32.0 °F 57% 30.12 in 10.0 mi NNE 16.1 mph 24.2 mph N/A   Clear
12:15 PM 46.4 °F 39.0 °F 32.0 °F 57% 30.12 in 10.0 mi North 19.6 mph 25.3 mph N/A   Clear
12:35 PM 48.2 °F - 32.0 °F 54% 30.12 in 10.0 mi NNE 21.9 mph 28.8 mph N/A   Clear
12:55 PM 48.2 °F - 32.0 °F 54% 30.11 in 10.0 mi NNE 27.6 mph 35.7 mph N/A   Clear
1:15 PM 48.2 °F - 30.2 °F 50% 30.11 in 10.0 mi NNE 23.0 mph 33.4 mph N/A   Clear
1:35 PM 48.2 °F - 32.0 °F 54% 30.10 in 10.0 mi NNE 23.0 mph 32.2 mph N/A   Clear
1:55 PM 48.2 °F - 32.0 °F 54% 30.10 in 10.0 mi NNE 26.5 mph 34.5 mph N/A   Clear
2:15 PM 48.2 °F - 32.0 °F 54% 30.10 in 10.0 mi NNE 24.2 mph 34.5 mph N/A   Clear
2:35 PM 48.2 °F - 32.0 °F 54% 30.10 in 10.0 mi NNE 24.2 mph 33.4 mph N/A   Clear
2:55 PM 48.2 °F - 32.0 °F 54% 30.10 in 10.0 mi North 25.3 mph 31.1 mph N/A   Clear
3:15 PM 50.0 °F - 32.0 °F 50% 30.10 in 10.0 mi NNE 24.2 mph 32.2 mph N/A   Partly Cloudy
3:35 PM 50.0 °F - 32.0 °F 50% 30.10 in 10.0 mi NNE 21.9 mph 32.2 mph N/A   Clear
3:55 PM 48.2 °F - 32.0 °F 54% 30.10 in 10.0 mi North 20.7 mph 31.1 mph N/A   Clear
4:15 PM 50.0 °F - 32.0 °F 50% 30.09 in 10.0 mi NNE 21.9 mph 29.9 mph N/A   Clear
4:35 PM 50.0 °F - 30.2 °F 47% 30.09 in 10.0 mi NNE 23.0 mph 31.1 mph N/A   Clear
4:55 PM 50.0 °F - 30.2 °F 47% 30.09 in 10.0 mi NNE 21.9 mph 31.1 mph N/A   Clear
5:15 PM 50.0 °F - 28.4 °F 43% 30.09 in 10.0 mi North 23.0 mph 31.1 mph N/A   Clear
5:35 PM 50.0 °F - 30.2 °F 47% 30.10 in 10.0 mi NNE 24.2 mph 31.1 mph N/A   Clear
5:55 PM 50.0 °F - 28.4 °F 43% 30.10 in 10.0 mi NNE 24.2 mph 29.9 mph N/A   Clear
6:15 PM 48.2 °F - 28.4 °F 46% 30.11 in 10.0 mi NNE 24.2 mph 33.4 mph N/A   Clear
6:35 PM 48.2 °F - 26.6 °F 43% 30.11 in 10.0 mi NNE 26.5 mph 34.5 mph N/A   Clear
6:55 PM 48.2 °F - 26.6 °F 43% 30.12 in 10.0 mi NNE 24.2 mph 34.5 mph N/A   Clear
7:15 PM 48.2 °F - 26.6 °F 43% 30.12 in 10.0 mi NNE 21.9 mph 33.4 mph N/A   Clear
7:35 PM 46.4 °F 38.3 °F 24.8 °F 43% 30.13 in 10.0 mi NNE 23.0 mph 28.8 mph N/A   Clear
7:55 PM 46.4 °F 39.8 °F 26.6 °F 46% 30.13 in 10.0 mi NNE 16.1 mph 27.6 mph N/A   Clear
8:15 PM 44.6 °F 37.8 °F 26.6 °F 49% 30.13 in 10.0 mi NNE 15.0 mph 23.0 mph N/A   Clear
8:35 PM 42.8 °F 35.8 °F 26.6 °F 53% 30.13 in 10.0 mi North 13.8 mph - N/A   Clear
8:55 PM 41.0 °F 33.9 °F 26.6 °F 57% 30.13 in 10.0 mi North 12.7 mph - N/A   Clear
9:15 PM 39.2 °F 31.6 °F 26.6 °F 61% 30.13 in 10.0 mi North 12.7 mph - N/A   Clear
9:35 PM 39.2 °F - 26.6 °F 61% 30.13 in 10.0 mi North - - N/A   Clear
9:55 PM 39.2 °F 32.0 °F 26.6 °F 61% 30.13 in 10.0 mi North 11.5 mph - N/A   Clear
10:15 PM 37.4 °F 29.8 °F 26.6 °F 65% 30.13 in 10.0 mi North 11.5 mph - N/A   Clear
10:35 PM 37.4 °F 28.9 °F 26.6 °F 65% 30.13 in 10.0 mi North 13.8 mph - N/A   Clear
10:55 PM 37.4 °F 28.5 °F 26.6 °F 65% 30.12 in 10.0 mi North 15.0 mph - N/A   Clear
11:15 PM 37.4 °F 28.5 °F 24.8 °F 60% 30.11 in 10.0 mi North 15.0 mph - N/A   Clear
11:35 PM 37.4 °F 28.9 °F 24.8 °F 60% 30.11 in 10.0 mi North 13.8 mph - N/A   Clear
11:55 PM 35.6 °F 26.6 °F 24.8 °F 65% 30.11 in 10.0 mi North 13.8 mph 19.6 mph N/A   Clear